This is the latest recevied weather packets stored in our database for station/object KC5DAQ-29. If no packets are shown the sender has not sent any weather packets the latest 10 day(s).
| Time | Temp. | Humidity | Pressure | Rain* | Wind** | Luminosity | Snow |
|---|---|---|---|---|---|---|---|
| 1787875983 | 32.78° C | 100% | 1008.6 hPa | 0 mm | - | 91 W/m² | - |
| 1787875922 | 32.78° C | 100% | 1008.6 hPa | 0 mm | - | 91 W/m² | - |
| 1787875864 | 32.78° C | 100% | 1008.6 hPa | 0 mm | - | 91 W/m² | - |
| 1787875803 | 32.78° C | 100% | 1008.7 hPa | 0 mm | - | 90 W/m² | - |
| 1787875742 | 32.78° C | 100% | 1008.6 hPa | 0 mm | - | 90 W/m² | - |
| 1787875683 | 32.78° C | 100% | 1008.6 hPa | 0 mm | - | 90 W/m² | - |
| 1787875623 | 32.78° C | 100% | 1008.6 hPa | 0 mm | - | 90 W/m² | - |
| 1787875562 | 32.78° C | 100% | 1008.7 hPa | 0 mm | - | 90 W/m² | - |
| 1787875503 | 33.33° C | 100% | 1008.7 hPa | 0 mm | - | 99 W/m² | - |
| 1787875443 | 33.33° C | 100% | 1008.7 hPa | 0 mm | - | 99 W/m² | - |
| 1787875383 | 33.33° C | 100% | 1008.7 hPa | 0 mm | - | 99 W/m² | - |
| 1787875323 | 32.78° C | 100% | 1008.7 hPa | 0 mm | - | 99 W/m² | - |
| 1787875263 | 32.78° C | 100% | 1008.7 hPa | 0 mm | - | 99 W/m² | - |
| 1787875203 | 32.78° C | 100% | 1008.7 hPa | 0 mm | - | 99 W/m² | - |
| 1787875144 | 32.78° C | 100% | 1008.7 hPa | 0 mm | - | 104 W/m² | - |
| 1787875083 | 33.33° C | 100% | 1008.7 hPa | 0 mm | - | 134 W/m² | - |
| 1787875023 | 33.33° C | 100% | 1008.8 hPa | 0 mm | - | 134 W/m² | - |
| 1787874963 | 33.33° C | 100% | 1008.8 hPa | 0 mm | - | 134 W/m² | - |
| 1787874902 | 33.33° C | 100% | 1008.8 hPa | 0 mm | - | 134 W/m² | - |
| 1787874843 | 33.33° C | 100% | 1008.8 hPa | 0 mm | - | 134 W/m² | - |
| 1787874782 | 33.33° C | 100% | 1008.8 hPa | 0 mm | - | 134 W/m² | - |
| 1787874722 | 33.33° C | 100% | 1009 hPa | 0 mm | - | 111 W/m² | - |
| 1787874662 | 33.33° C | 100% | 1008.8 hPa | 0 mm | - | 111 W/m² | - |
| 1787874603 | 33.33° C | 100% | 1008.9 hPa | 0 mm | - | 111 W/m² | - |
| 1787874543 | 33.33° C | 100% | 1008.9 hPa | 0 mm | - | 111 W/m² | - |
* Rain latest hour (hover to see other rain measurements)
** Current wind speed in m/s (hover to see current wind gust speed)